Content
SEND FEEDBACK

Daily
Averages
Monthly
Summary
United States of America

MONTEVIDEO, MINNESOTA


Home > North America > United States > Minnesota
Elevation: 1130 feet     Latitude: 45 06N     Longitude: 095 05W

WEATHER
 
SELECT A DAY
Number of Records: 191,904;   Date Range: 10/20/06 - 7/7/14
 
SHARE

PRINT THIS DATA

[ ← Previous Day ]
WEATHER ALMANAC - JANUARY 31, 2013
[ Next Day → ]
[ °C ]   °F
Weather ElementAverageHighLow
Temperature-7.5 °F-2.2 °F (12:35 am)-11.2 °F (7:35 am)
Dewpoint-15.4 °F-9.4 °F (12:35 am)-20.2 °F (10:55 pm)
Humidity68.6 %77 % (3:35 am)64 % (10:55 pm)
Barometer30.09 in30.28 in (9:35 pm)29.83 in (12:35 am)
Wind Speed22 mph31.1 mph (11:35 am)
Wind Gust38 mph (1:35 pm)
Weather ElementAverage
Visibility6.2 mi
Wind DirectionWNW (305.2 °)

Weather ElementTotal
Precipitation---
Heating Degree Days71.7 (Base 65)
Averaged from 69 records on January 31, 2013
WEATHER CONDITIONS BREAKOUT
WIND DIRECTION BREAKOUT
WEATHER BY HOUR - JANUARY 31, 2013
[ °C ]   °F
Local TimeTemperatureDewpointHumidityBarometerVisibilityWind DirectionWind SpeedGust SpeedPrecipitationEventsConditions
12:35 AM-2.2 °F-9.4 °F71 %29.83 in10.0 miNW (310°)20.7 mph25.3 mphOvercast
12:55 AM-2.2 °F-9.4 °F71 %29.84 in7.0 miWNW (300°)20.7 mph26.5 mphOvercast
1:15 AM-2.2 °F-9.4 °F71 %29.84 in7.0 miNW (310°)20.7 mph27.6 mphOvercast
1:35 AM-2.2 °F-9.4 °F71 %29.85 in7.0 miNW (310°)21.9 mph29.9 mphOvercast
1:55 AM-2.2 °F-9.4 °F71 %29.85 in7.0 miNW (310°)20.7 mph27.6 mphOvercast
2:15 AM-4.0 °F-11.2 °F71 %29.86 in4.0 miNW (310°)20.7 mphHaze
2:35 AM-4.0 °F-11.2 °F71 %29.87 in7.0 miWNW (300°)19.6 mph25.3 mphOvercast
2:55 AM-4.0 °F-11.2 °F71 %29.87 in10.0 miNW (310°)18.4 mph26.5 mphOvercast
3:15 AM-4.0 °F-11.2 °F71 %29.87 in10.0 miNW (310°)23.0 mph28.8 mphOvercast
3:35 AM-5.8 °F-11.2 °F77 %29.88 in10.0 miNW (310°)23.0 mph28.8 mphOvercast
3:55 AM-5.8 °F-11.2 °F77 %29.88 in7.0 miNW (310°)25.3 mph31.1 mphOvercast
4:15 AM-5.8 °F-11.2 °F77 %29.89 in7.0 miWNW (300°)19.6 mphOvercast
4:35 AM-5.8 °F-11.2 °F77 %29.90 in5.0 miNW (310°)20.7 mph28.8 mphHaze
4:55 AM-5.8 °F-13.0 °F71 %29.91 in7.0 miNW (310°)20.7 mph32.2 mphOvercast
5:15 AM-5.8 °F-13.0 °F71 %29.91 in4.0 miNW (310°)23.0 mph27.6 mphHaze
5:35 AM-7.6 °F-14.8 °F71 %29.92 in3.0 miNW (310°)25.3 mph32.2 mphHaze
5:55 AM-7.6 °F-14.8 °F71 %29.93 in3.0 miWNW (300°)25.3 mph32.2 mphHaze
6:15 AM-7.6 °F-14.8 °F71 %29.94 in2.5 miNW (310°)25.3 mph29.9 mphHaze
6:35 AM-9.4 °F-16.6 °F71 %29.95 in4.0 miNW (310°)20.7 mph28.8 mphHaze
6:55 AM-9.4 °F-18.4 °F65 %29.97 in10.0 miNW (310°)21.9 mphOvercast
7:15 AM-9.4 °F-18.4 °F65 %29.97 in10.0 miNW (310°)27.6 mph33.4 mphOvercast
7:35 AM-11.2 °F-18.4 °F70 %29.99 in7.0 miNW (310°)24.2 mph29.9 mphOvercast
7:56 AM-11.2 °F-18.4 °F70 %30.00 in4.0 miWNW (300°)18.4 mph29.9 mphHaze
8:15 AM-11.2 °F-18.4 °F70 %30.01 in2.5 miNW (310°)21.9 mph27.6 mphHaze
8:35 AM-11.2 °F-18.4 °F70 %30.03 in3.0 miNW (310°)21.9 mph25.3 mphHaze
8:55 AM-9.4 °F-18.4 °F65 %30.03 in2.0 miWNW (300°)23.0 mph29.9 mphHaze
9:20 AM-9.4 °F-16.6 °F71 %30.04 in1.0 miNW (310°)27.6 mph31.1 mphHaze
9:35 AM-9.4 °F-16.6 °F71 %30.05 in0.5 miNW (310°)26.5 mph31.1 mphSnowLight Snow
9:56 AM-9.4 °F-16.6 °F71 %30.06 in0.5 miNW (310°)27.6 mph35.7 mphSnowLight Snow
10:15 AM-9.4 °F-14.8 °F77 %30.07 in0.8 miNW (310°)27.6 mph34.5 mphHaze
10:35 AM-7.6 °F-14.8 °F71 %30.08 in0.5 miNW (310°)29.9 mph34.5 mphSnowLight Snow
11:00 AM-7.6 °F-14.8 °F71 %30.10 in0.8 miNW (310°)26.5 mph34.5 mphHaze
11:15 AM-7.6 °F-14.8 °F71 %30.10 in1.5 miNW (310°)29.9 mph34.5 mphHaze
11:35 AM-7.6 °F-14.8 °F71 %30.11 in3.0 miNW (310°)31.1 mphHaze
11:55 AM-5.8 °F-14.8 °F65 %30.11 in1.8 miNW (310°)26.5 mph34.5 mphHaze
12:15 PM-5.8 °F-14.8 °F65 %30.12 in2.0 miNW (310°)25.3 mph34.5 mphHaze
12:35 PM-5.8 °F-14.8 °F65 %30.13 in2.0 miWNW (300°)27.6 mph34.5 mphHaze
12:55 PM-5.8 °F-14.8 °F65 %30.13 in2.5 miNW (310°)29.9 mph35.7 mphHaze
1:15 PM-5.8 °F-14.8 °F65 %30.13 in3.0 miWNW (300°)26.5 mph33.4 mphHaze
1:35 PM-5.8 °F-14.8 °F65 %30.14 in3.0 miNW (310°)29.9 mph38.0 mphHaze
1:55 PM-5.8 °F-14.8 °F65 %30.14 in1.5 miNW (310°)28.8 mph35.7 mphHaze
2:15 PM-5.8 °F-14.8 °F65 %30.15 in7.0 miNW (310°)28.8 mph36.8 mphMostly Cloudy
2:35 PM-5.8 °F-14.8 °F65 %30.16 in7.0 miNW (310°)27.6 mph36.8 mphMostly Cloudy
2:55 PM-5.8 °F-14.8 °F65 %30.17 in3.0 miWNW (300°)27.6 mph34.5 mphHaze
3:15 PM-7.6 °F-14.8 °F71 %30.18 in2.5 miWNW (300°)25.3 mphHaze
3:36 PM-7.6 °F-16.6 °F65 %30.20 in4.0 miNW (310°)25.3 mph34.5 mphHaze
3:55 PM-7.6 °F-14.8 °F71 %30.20 in5.0 miWNW (300°)23.0 mph32.2 mphHaze
4:15 PM-7.6 °F-16.6 °F65 %30.21 in10.0 miWNW (300°)25.3 mph31.1 mphScattered Clouds
4:36 PM-7.6 °F-16.6 °F65 %30.21 in7.0 miWNW (300°)21.9 mph32.2 mphClear
4:55 PM-7.6 °F-16.6 °F65 %30.22 in10.0 miNW (310°)23.0 mph31.1 mphClear
5:15 PM-7.6 °F-16.6 °F65 %30.22 in10.0 miWNW (300°)19.6 mph28.8 mphClear
5:36 PM-7.6 °F-16.6 °F65 %30.23 in10.0 miWNW (300°)20.7 mph26.5 mphClear
5:55 PM-7.6 °F-16.6 °F65 %30.23 in10.0 miWNW (300°)18.4 mph24.2 mphClear
6:15 PM-7.6 °F-16.6 °F65 %30.23 in10.0 miNW (310°)18.4 mph24.2 mphClear
6:35 PM-7.6 °F-16.6 °F65 %30.24 in10.0 miWNW (300°)17.3 mphClear
6:55 PM-9.4 °F-16.6 °F71 %30.24 in10.0 miWNW (300°)17.3 mphClear
7:15 PM-9.4 °F-18.4 °F65 %30.25 in10.0 miWNW (300°)16.1 mphClear
7:35 PM-9.4 °F-18.4 °F65 %30.25 in10.0 miWNW (300°)16.1 mphClear
7:55 PM-9.4 °F-18.4 °F65 %30.26 in10.0 miWNW (300°)19.6 mphClear
8:16 PM-9.4 °F-18.4 °F65 %30.26 in10.0 miNW (310°)17.3 mph23.0 mphClear
8:35 PM-9.4 °F-18.4 °F65 %30.26 in10.0 miWNW (300°)17.3 mph20.7 mphClear
9:16 PM-9.4 °F-18.4 °F65 %30.27 in10.0 miWNW (300°)13.8 mphClear
9:35 PM-9.4 °F-18.4 °F65 %30.28 in10.0 miWNW (300°)13.8 mph18.4 mphClear
9:55 PM-11.2 °F-18.4 °F70 %30.28 in10.0 miNW (310°)12.7 mphClear
10:16 PM-11.2 °F-18.4 °F70 %30.28 in10.0 miWNW (300°)12.7 mphClear
10:35 PM-11.2 °F-18.4 °F70 %30.28 in10.0 miWNW (300°)12.7 mphClear
10:55 PM-11.2 °F-20.2 °F64 %30.28 in10.0 miWNW (290°)9.2 mphClear
11:16 PM-11.2 °F-18.4 °F70 %30.28 in10.0 miWNW (290°)9.2 mphClear
11:35 PM-11.2 °F-20.2 °F64 %30.28 in10.0 miWest (280°)10.4 mphClear
Hourly data recorded from KBDH, located miles away from Montevideo, Minnesota







STORIES FROM OUR PARTNERS